| time (UTC) | temp F | wind direction | speed MPH | gust MPH | rain 1hr in | rain 24hr in | rain mn in | humidity % | barometer mb |
| 20260831214739 | 92 | 147 | 2.0 | 16.0 | 0.00 | 0.00 | 0.00 | 25 | 1018.3 |
| 20260831214232 | 92 | 129 | 9.0 | 15.0 | 0.00 | 0.00 | 0.00 | 24 | 1018.7 |
| 20260831213732 | 93 | 92 | 0.0 | 15.0 | 0.00 | 0.00 | 0.00 | 25 | 1018.7 |
| 20260831213211 | 93 | 110 | 0.0 | 14.0 | 0.00 | 0.00 | 0.00 | 24 | 1018.7 |
| 20260831212701 | 92 | 81 | 5.0 | 14.0 | 0.00 | 0.00 | 0.00 | 23 | 1018.7 |
| 20260831212158 | 92 | 106 | 4.0 | 15.0 | 0.00 | 0.00 | 0.00 | 24 | 1019.0 |
| 20260831211912 | 93 | 110 | 6.0 | 15.0 | 0.00 | 0.00 | 0.00 | 24 | 1019.0 |
| 20260831211147 | 93 | 112 | 0.0 | 16.0 | 0.00 | 0.00 | 0.00 | 26 | 1019.0 |
| 20260831210645 | 94 | 114 | 2.0 | 16.0 | 0.00 | 0.00 | 0.00 | 24 | 1019.0 |
| 20260831210402 | 93 | 115 | 0.0 | 15.0 | 0.00 | 0.00 | 0.00 | 24 | 1019.0 |
| 20260831205634 | 93 | 148 | 5.0 | 13.0 | 0.00 | 0.00 | 0.00 | 24 | 1019.0 |
| 20260831205131 | 92 | 153 | 4.0 | 13.0 | 0.00 | 0.00 | 0.00 | 25 | 1019.4 |
| 20260831204615 | 92 | 117 | 4.0 | 13.0 | 0.00 | 0.00 | 0.00 | 25 | 1019.0 |
| 20260831204113 | 92 | 110 | 0.0 | 13.0 | 0.00 | 0.00 | 0.00 | 24 | 1019.4 |
| 20260831203840 | 92 | 100 | 1.0 | 9.0 | 0.00 | 0.00 | 0.00 | 26 | 1019.4 |
| 20260831203112 | 92 | 129 | 0.0 | 13.0 | 0.00 | 0.00 | 0.00 | 27 | 1019.4 |
| 20260831202608 | 92 | 95 | 1.0 | 13.0 | 0.00 | 0.00 | 0.00 | 27 | 1019.4 |
| 20260831202103 | 92 | 104 | 2.0 | 13.0 | 0.00 | 0.00 | 0.00 | 26 | 1019.7 |
| 20260831201815 | 93 | 159 | 7.0 | 10.0 | 0.00 | 0.00 | 0.00 | 25 | 1020.0 |
| 20260831201054 | 93 | 101 | 0.0 | 15.0 | 0.00 | 0.00 | 0.00 | 26 | 1019.7 |
| 20260831200538 | 91 | 147 | 0.0 | 15.0 | 0.00 | 0.00 | 0.00 | 27 | 1020.0 |
| 20260831200034 | 92 | 124 | 5.0 | 15.0 | 0.00 | 0.00 | 0.00 | 26 | 1020.0 |
| 20260831195518 | 92 | 115 | 0.0 | 7.0 | 0.00 | 0.00 | 0.00 | 28 | 1020.0 |
| 20260831195016 | 92 | 153 | 0.0 | 10.0 | 0.00 | 0.00 | 0.00 | 27 | 1020.4 |
| 20260831194514 | 92 | 155 | 3.0 | 14.0 | 0.00 | 0.00 | 0.00 | 27 | 1020.0 |
| 20260831194015 | 92 | 111 | 6.0 | 14.0 | 0.00 | 0.00 | 0.00 | 27 | 1020.0 |
| 20260831193513 | 92 | 107 | 4.0 | 8.0 | 0.00 | 0.00 | 0.00 | 28 | 1020.0 |
| 20260831193014 | 91 | 103 | 0.0 | 14.0 | 0.00 | 0.00 | 0.00 | 28 | 1020.4 |
| 20260831192456 | 92 | 91 | 0.0 | 14.0 | 0.00 | 0.00 | 0.00 | 28 | 1020.0 |
| 20260831191935 | 91 | 128 | 1.0 | 14.0 | 0.00 | 0.00 | 0.00 | 29 | 1020.0 |
| 20260831191417 | 92 | 162 | 7.0 | 14.0 | 0.00 | 0.00 | 0.00 | 29 | 1020.4 |
| 20260831190905 | 92 | 92 | 0.0 | 10.0 | 0.00 | 0.00 | 0.00 | 28 | 1020.4 |
| 20260831190359 | 91 | 122 | 1.0 | 10.0 | 0.00 | 0.00 | 0.00 | 30 | 1020.4 |
| 20260831185844 | 91 | 121 | 4.0 | 9.0 | 0.00 | 0.00 | 0.00 | 30 | 1020.4 |
| 20260831185334 | 91 | 102 | 3.0 | 8.0 | 0.00 | 0.00 | 0.00 | 30 | 1020.7 |
| 20260831184833 | 91 | 70 | 0.0 | 13.0 | 0.00 | 0.00 | 0.00 | 32 | 1020.7 |
| 20260831184813 | 91 | 113 | 9.0 | 14.0 | 0.00 | 0.00 | 0.00 | 32 | 1020.4 |
| 20260831183816 | 90 | 150 | 6.0 | 14.0 | 0.00 | 0.00 | 0.00 | 31 | 1020.7 |
| 20260831183307 | 91 | 141 | 0.0 | 13.0 | 0.00 | 0.00 | 0.00 | 32 | 1020.4 |
| 20260831182802 | 90 | 134 | 0.0 | 13.0 | 0.00 | 0.00 | 0.00 | 32 | 1020.7 |
| 20260831182305 | 90 | 131 | 1.0 | 13.0 | 0.00 | 0.00 | 0.00 | 33 | 1021.1 |
| 20260831181753 | 90 | 118 | 0.0 | 14.0 | 0.00 | 0.00 | 0.00 | 33 | 1020.7 |
| 20260831181250 | 90 | 118 | 5.0 | 14.0 | 0.00 | 0.00 | 0.00 | 33 | 1021.4 |
| 20260831180750 | 90 | 139 | 0.0 | 17.0 | 0.00 | 0.00 | 0.00 | 34 | 1021.1 |
| 20260831180242 | 90 | 140 | 3.0 | 9.0 | 0.00 | 0.00 | 0.00 | 33 | 1021.1 |
| 20260831175735 | 89 | 129 | 0.0 | 11.0 | 0.00 | 0.00 | 0.00 | 34 | 1021.1 |
| 20260831175219 | 89 | 147 | 0.0 | 11.0 | 0.00 | 0.00 | 0.00 | 35 | 1021.1 |
| 20260831174710 | 90 | 131 | 0.0 | 10.0 | 0.00 | 0.00 | 0.00 | 35 | 1021.1 |
| 20260831174206 | 89 | 144 | 4.0 | 10.0 | 0.00 | 0.00 | 0.00 | 35 | 1021.1 |
| 20260831173704 | 89 | 163 | 1.0 | 9.0 | 0.00 | 0.00 | 0.00 | 35 | 1021.4 |
| 20260831173146 | 89 | 112 | 3.0 | 11.0 | 0.00 | 0.00 | 0.00 | 35 | 1021.4 |
| 20260831172640 | 89 | 110 | 0.0 | 11.0 | 0.00 | 0.00 | 0.00 | 34 | 1021.4 |
| 20260831172130 | 89 | 143 | 0.0 | 11.0 | 0.00 | 0.00 | 0.00 | 36 | 1021.7 |
| 20260831171837 | 88 | 181 | 0.0 | 13.0 | 0.00 | 0.00 | 0.00 | 36 | 1021.7 |
| 20260831171113 | 87 | 136 | 1.0 | 13.0 | 0.00 | 0.00 | 0.00 | 36 | 1021.7 |
| 20260831170605 | 87 | 150 | 2.0 | 11.0 | 0.00 | 0.00 | 0.00 | 36 | 1021.7 |
| 20260831170537 | 87 | 151 | 3.0 | 10.0 | 0.00 | 0.00 | 0.00 | 37 | 1021.7 |
| 20260831165552 | 86 | 126 | 5.0 | 10.0 | 0.00 | 0.00 | 0.00 | 37 | 1021.4 |
| 20260831165040 | 86 | 120 | 2.0 | 10.0 | 0.00 | 0.00 | 0.00 | 39 | 1021.7 |
| 20260831164534 | 87 | 142 | 0.0 | 10.0 | 0.00 | 0.00 | 0.00 | 38 | 1021.7 |
| 20260831164247 | 85 | 116 | 0.0 | 8.0 | 0.00 | 0.00 | 0.00 | 41 | 1021.7 |
| 20260831163529 | 87 | 146 | 0.0 | 7.0 | 0.00 | 0.00 | 0.00 | 40 | 1021.4 |
| 20260831163030 | 85 | 105 | 1.0 | 7.0 | 0.00 | 0.00 | 0.00 | 41 | 1021.7 |
| 20260831162754 | 85 | 170 | 1.0 | 9.0 | 0.00 | 0.00 | 0.00 | 41 | 1021.7 |
| 20260831162027 | 85 | 172 | 0.0 | 9.0 | 0.00 | 0.00 | 0.00 | 42 | 1021.7 |
| 20260831161522 | 85 | 199 | 0.0 | 8.0 | 0.00 | 0.00 | 0.00 | 43 | 1021.7 |
| 20260831161013 | 84 | 144 | 0.0 | 8.0 | 0.00 | 0.00 | 0.00 | 42 | 1021.4 |
| 20260831160507 | 83 | 204 | 0.0 | 9.0 | 0.00 | 0.00 | 0.00 | 44 | 1021.4 |
| 20260831160000 | 83 | 125 | 1.0 | 9.0 | 0.00 | 0.00 | 0.00 | 45 | 1021.1 |
| 20260831155457 | 82 | 147 | 1.0 | 9.0 | 0.00 | 0.00 | 0.00 | 45 | 1021.1 |
| 20260831154950 | 82 | 140 | 2.0 | 9.0 | 0.00 | 0.00 | 0.00 | 46 | 1021.4 |
| 20260831154447 | 82 | 142 | 0.0 | 7.0 | 0.00 | 0.00 | 0.00 | 46 | 1021.4 |
| 20260831153946 | 82 | 199 | 0.0 | 7.0 | 0.00 | 0.00 | 0.00 | 47 | 1021.1 |
| 20260831153653 | 82 | 150 | 0.0 | 7.0 | 0.00 | 0.00 | 0.00 | 47 | 1021.1 |
| 20260831152915 | 81 | 203 | 0.0 | 6.0 | 0.00 | 0.00 | 0.00 | 48 | 1021.4 |
| 20260831152415 | 81 | 123 | 2.0 | 8.0 | 0.00 | 0.00 | 0.00 | 48 | 1021.4 |
| 20260831152115 | 81 | 198 | 1.0 | 8.0 | 0.00 | 0.00 | 0.00 | 48 | 1021.4 |
| 20260831151347 | 81 | 207 | 0.0 | 7.0 | 0.00 | 0.00 | 0.00 | 49 | 1021.4 |
| 20260831150837 | 80 | 196 | 0.0 | 3.0 | 0.00 | 0.00 | 0.00 | 49 | 1021.4 |
| 20260831150328 | 79 | 166 | 0.0 | 4.0 | 0.00 | 0.00 | 0.00 | 51 | 1021.7 |
| 20260831145826 | 79 | 138 | 0.0 | 10.0 | 0.00 | 0.00 | 0.00 | 51 | 1021.4 |
| 20260831145326 | 78 | 197 | 0.0 | 11.0 | 0.00 | 0.00 | 0.00 | 51 | 1021.1 |
| 20260831144814 | 78 | 130 | 0.0 | 11.0 | 0.00 | 0.00 | 0.00 | 52 | 1021.1 |
| 20260831144306 | 78 | 107 | 0.0 | 9.0 | 0.00 | 0.00 | 0.00 | 53 | 1020.7 |
| 20260831143757 | 78 | 135 | 0.0 | 4.0 | 0.00 | 0.00 | 0.00 | 53 | 1020.7 |
| 20260831143254 | 77 | 150 | 0.0 | 13.0 | 0.00 | 0.00 | 0.00 | 53 | 1020.7 |
| 20260831142753 | 76 | 191 | 9.0 | 13.0 | 0.00 | 0.00 | 0.00 | 54 | 1020.7 |
| 20260831142250 | 76 | 139 | 8.0 | 10.0 | 0.00 | 0.00 | 0.00 | 55 | 1020.7 |
| 20260831142227 | 76 | 144 | 0.0 | 9.0 | 0.00 | 0.00 | 0.00 | 55 | 1020.7 |
| 20260831141453 | 75 | 133 | 1.0 | 11.0 | 0.00 | 0.00 | 0.00 | 56 | 1021.1 |
| 20260831140720 | 75 | 153 | 4.0 | 11.0 | 0.00 | 0.00 | 0.00 | 57 | 1021.1 |
| 20260831140428 | 75 | 109 | 0.0 | 8.0 | 0.00 | 0.00 | 0.00 | 56 | 1020.7 |
| 20260831135651 | 74 | 185 | 0.0 | 6.0 | 0.00 | 0.00 | 0.00 | 56 | 1020.4 |
| 20260831135147 | 74 | 194 | 1.0 | 3.0 | 0.00 | 0.00 | 0.00 | 57 | 1020.4 |
| 20260831134638 | 74 | 131 | 1.0 | 2.0 | 0.00 | 0.00 | 0.00 | 56 | 1020.4 |
| 20260831134129 | 74 | 181 | 0.0 | 1.0 | 0.00 | 0.00 | 0.00 | 57 | 1020.7 |
| 20260831133608 | 74 | 172 | 0.0 | 1.0 | 0.00 | 0.00 | 0.00 | 57 | 1020.4 |
| 20260831133102 | 73 | 178 | 0.0 | 1.0 | 0.00 | 0.00 | 0.00 | 57 | 1020.7 |
| 20260831132601 | 73 | 197 | 0.0 | 2.0 | 0.00 | 0.00 | 0.00 | 58 | 1020.4 |
| 20260831132053 | 73 | 189 | 0.0 | 2.0 | 0.00 | 0.00 | 0.00 | 58 | 1020.4 |
| 20260831131551 | 73 | 170 | 0.0 | 0.0 | 0.00 | 0.00 | 0.00 | 58 | 1020.0 |
| 20260831131044 | 72 | 128 | 0.0 | 0.0 | 0.00 | 0.00 | 0.00 | 58 | 1019.7 |
| 20260831130540 | 71 | 186 | 0.0 | 0.0 | 0.00 | 0.00 | 0.00 | 59 | 1020.0 |
| 20260831130040 | 71 | 192 | 0.0 | 0.0 | 0.00 | 0.00 | 0.00 | 59 | 1020.0 |
| 20260831125535 | 71 | 201 | 0.0 | 0.0 | 0.00 | 0.00 | 0.00 | 59 | 1020.0 |
| 20260831125234 | 71 | 189 | 0.0 | 0.0 | 0.00 | 0.00 | 0.00 | 60 | 1019.7 |
| 20260831124738 | 71 | 188 | 0.0 | 1.0 | 0.00 | 0.00 | 0.00 | 60 | 1019.7 |
| 20260831124004 | 71 | 197 | 0.0 | 1.0 | 0.00 | 0.00 | 0.00 | 60 | 1019.7 |
| 20260831123455 | 71 | 172 | 0.0 | 1.0 | 0.00 | 0.00 | 0.00 | 60 | 1019.7 |
| 20260831122946 | 71 | 191 | 0.0 | 1.0 | 0.00 | 0.00 | 0.00 | 59 | 1019.4 |
| 20260831122434 | 71 | 187 | 0.0 | 1.0 | 0.00 | 0.00 | 0.00 | 58 | 1019.4 |
| 20260831121927 | 71 | 199 | 0.0 | 1.0 | 0.00 | 0.00 | 0.00 | 58 | 1019.4 |
| 20260831121424 | 71 | 198 | 0.0 | 1.0 | 0.00 | 0.00 | 0.00 | 58 | 1019.4 |
| 20260831120923 | 71 | 163 | 0.0 | 1.0 | 0.00 | 0.00 | 0.00 | 58 | 1019.4 |
| 20260831120414 | 71 | 125 | 0.0 | 1.0 | 0.00 | 0.00 | 0.00 | 57 | 1019.4 |
| 20260831115905 | 71 | 151 | 0.0 | 0.0 | 0.00 | 0.00 | 0.00 | 57 | 1019.7 |
| 20260831115403 | 71 | 196 | 0.0 | 1.0 | 0.00 | 0.00 | 0.00 | 56 | 1019.7 |
| 20260831114855 | 71 | 199 | 0.0 | 1.0 | 0.00 | 0.00 | 0.00 | 56 | 1019.7 |
| 20260831114347 | 71 | 167 | 0.0 | 0.0 | 0.00 | 0.00 | 0.00 | 57 | 1019.4 |
| 20260831113841 | 71 | 164 | 0.0 | 0.0 | 0.00 | 0.00 | 0.00 | 56 | 1019.4 |
| 20260831113326 | 70 | 164 | 0.0 | 0.0 | 0.00 | 0.00 | 0.00 | 57 | 1020.0 |
| 20260831112814 | 70 | 164 | 0.0 | 0.0 | 0.00 | 0.00 | 0.00 | 57 | 1019.4 |
| 20260831112313 | 70 | 164 | 0.0 | 0.0 | 0.00 | 0.00 | 0.00 | 57 | 1019.4 |
| 20260831112038 | 70 | 164 | 0.0 | 0.0 | 0.00 | 0.00 | 0.00 | 57 | 1019.7 |
| 20260831111311 | 70 | 164 | 0.0 | 0.0 | 0.00 | 0.00 | 0.00 | 56 | 1019.4 |
| 20260831110807 | 71 | 164 | 0.0 | 0.0 | 0.00 | 0.00 | 0.00 | 56 | 1019.7 |
| 20260831110303 | 71 | 164 | 0.0 | 0.0 | 0.00 | 0.00 | 0.00 | 56 | 1019.7 |
| 20260831110010 | 71 | 164 | 0.0 | 0.0 | 0.00 | 0.00 | 0.00 | 55 | 1019.4 |
| 20260831105240 | 71 | 165 | 0.0 | 0.0 | 0.00 | 0.00 | 0.00 | 56 | 1019.4 |
| 20260831104736 | 71 | 165 | 0.0 | 0.0 | 0.00 | 0.00 | 0.00 | 55 | 1019.4 |
| 20260831104236 | 71 | 165 | 0.0 | 0.0 | 0.00 | 0.00 | 0.00 | 55 | 1019.4 |
| 20260831103735 | 71 | 165 | 0.0 | 0.0 | 0.00 | 0.00 | 0.00 | 55 | 1019.4 |
| 20260831103452 | 71 | 165 | 0.0 | 0.0 | 0.00 | 0.00 | 0.00 | 54 | 1019.7 |
| 20260831102733 | 71 | 165 | 0.0 | 0.0 | 0.00 | 0.00 | 0.00 | 54 | 1019.4 |
| 20260831102226 | 71 | 163 | 0.0 | 0.0 | 0.00 | 0.00 | 0.00 | 54 | 1019.7 |
| 20260831101948 | 72 | 163 | 0.0 | 0.0 | 0.00 | 0.00 | 0.00 | 53 | 1019.7 |
| 20260831101158 | 72 | 162 | 0.0 | 0.0 | 0.00 | 0.00 | 0.00 | 53 | 1019.4 |
| 20260831100654 | 72 | 162 | 0.0 | 0.0 | 0.00 | 0.00 | 0.00 | 53 | 1019.4 |
| 20260831100135 | 72 | 161 | 0.0 | 0.0 | 0.00 | 0.00 | 0.00 | 53 | 1019.4 |
| 20260831095622 | 72 | 162 | 0.0 | 0.0 | 0.00 | 0.00 | 0.00 | 53 | 1019.4 |
| 20260831095113 | 72 | 162 | 0.0 | 0.0 | 0.00 | 0.00 | 0.00 | 53 | 1019.4 |
| 20260831094605 | 72 | 161 | 0.0 | 0.0 | 0.00 | 0.00 | 0.00 | 52 | 1019.7 |
| 20260831094050 | 72 | 162 | 0.0 | 0.0 | 0.00 | 0.00 | 0.00 | 53 | 1019.4 |
| 20260831093801 | 72 | 162 | 0.0 | 0.0 | 0.00 | 0.00 | 0.00 | 52 | 1019.4 |
| 20260831093255 | 72 | 159 | 0.0 | 0.0 | 0.00 | 0.00 | 0.00 | 53 | 1019.7 |
| 20260831092516 | 72 | 160 | 0.0 | 0.0 | 0.00 | 0.00 | 0.00 | 52 | 1019.4 |
| 20260831092014 | 72 | 159 | 0.0 | 0.0 | 0.00 | 0.00 | 0.00 | 52 | 1019.4 |
| 20260831091514 | 72 | 159 | 0.0 | 0.0 | 0.00 | 0.00 | 0.00 | 52 | 1019.7 |
| 20260831091005 | 73 | 159 | 0.0 | 0.0 | 0.00 | 0.00 | 0.00 | 51 | 1019.4 |
| 20260831090501 | 73 | 159 | 0.0 | 0.0 | 0.00 | 0.00 | 0.00 | 51 | 1019.4 |
| 20260831090000 | 73 | 152 | 0.0 | 0.0 | 0.00 | 0.00 | 0.00 | 51 | 1019.4 |
| 20260831085452 | 73 | 150 | 0.0 | 0.0 | 0.00 | 0.00 | 0.00 | 50 | 1019.0 |
| 20260831085200 | 73 | 146 | 0.0 | 0.0 | 0.00 | 0.00 | 0.00 | 51 | 1019.0 |
| 20260831084423 | 73 | 139 | 0.0 | 0.0 | 0.00 | 0.00 | 0.00 | 51 | 1019.4 |
| 20260831083922 | 73 | 139 | 0.0 | 0.0 | 0.00 | 0.00 | 0.00 | 50 | 1019.0 |
| 20260831083422 | 74 | 140 | 0.0 | 0.0 | 0.00 | 0.00 | 0.00 | 50 | 1019.0 |
| 20260831082909 | 74 | 140 | 0.0 | 0.0 | 0.00 | 0.00 | 0.00 | 49 | 1019.0 |
| 20260831082629 | 74 | 141 | 0.0 | 0.0 | 0.00 | 0.00 | 0.00 | 49 | 1019.0 |
| 20260831081900 | 74 | 143 | 0.0 | 0.0 | 0.00 | 0.00 | 0.00 | 49 | 1018.7 |
| 20260831081357 | 74 | 138 | 0.0 | 0.0 | 0.00 | 0.00 | 0.00 | 49 | 1019.0 |
| 20260831080845 | 74 | 147 | 0.0 | 0.0 | 0.00 | 0.00 | 0.00 | 48 | 1019.0 |
| 20260831080333 | 74 | 126 | 0.0 | 0.0 | 0.00 | 0.00 | 0.00 | 48 | 1019.4 |
| 20260831075833 | 74 | 142 | 0.0 | 0.0 | 0.00 | 0.00 | 0.00 | 48 | 1019.0 |
| 20260831075323 | 74 | 143 | 0.0 | 0.0 | 0.00 | 0.00 | 0.00 | 48 | 1019.0 |
| 20260831074814 | 74 | 143 | 0.0 | 0.0 | 0.00 | 0.00 | 0.00 | 48 | 1019.4 |
| 20260831074314 | 74 | 144 | 0.0 | 0.0 | 0.00 | 0.00 | 0.00 | 48 | 1019.0 |
| 20260831073810 | 74 | 157 | 0.0 | 0.0 | 0.00 | 0.00 | 0.00 | 47 | 1019.4 |
| 20260831073256 | 74 | 138 | 0.0 | 0.0 | 0.00 | 0.00 | 0.00 | 47 | 1019.4 |
| 20260831072753 | 74 | 138 | 0.0 | 0.0 | 0.00 | 0.00 | 0.00 | 47 | 1019.0 |
| 20260831072237 | 75 | 140 | 0.0 | 0.0 | 0.00 | 0.00 | 0.00 | 47 | 1019.4 |
| 20260831071733 | 75 | 138 | 0.0 | 0.0 | 0.00 | 0.00 | 0.00 | 46 | 1019.0 |
| 20260831071220 | 75 | 156 | 0.0 | 1.0 | 0.00 | 0.00 | 0.00 | 46 | 1019.4 |
| 20260831070709 | 76 | 138 | 0.0 | 2.0 | 0.00 | 0.00 | 0.00 | 45 | 1019.4 |
| 20260831070209 | 76 | 134 | 0.0 | 3.0 | 0.00 | 0.00 | 0.00 | 45 | 1019.0 |
| 20260831065930 | 76 | 150 | 0.0 | 3.0 | 0.00 | 0.00 | 0.00 | 45 | 1019.0 |
| 20260831065418 | 76 | 158 | 0.0 | 1.0 | 0.00 | 0.00 | 0.00 | 45 | 1019.0 |
| 20260831064647 | 76 | 142 | 0.0 | 1.0 | 0.00 | 0.00 | 0.00 | 44 | 1018.7 |
| 20260831064134 | 76 | 146 | 0.0 | 1.0 | 0.00 | 0.00 | 0.00 | 45 | 1019.4 |
| 20260831064119 | 76 | 147 | 0.0 | 1.0 | 0.00 | 0.00 | 0.00 | 44 | 1019.0 |
| 20260831063126 | 76 | 142 | 0.0 | 1.0 | 0.00 | 0.00 | 0.00 | 44 | 1019.0 |
| 20260831062625 | 76 | 146 | 0.0 | 2.0 | 0.00 | 0.00 | 0.00 | 44 | 1019.0 |
| 20260831062114 | 76 | 146 | 0.0 | 2.0 | 0.00 | 0.00 | 0.00 | 44 | 1019.4 |
| 20260831061614 | 76 | 127 | 0.0 | 1.0 | 0.00 | 0.00 | 0.00 | 44 | 1019.4 |
| 20260831061327 | 77 | 146 | 0.0 | 1.0 | 0.00 | 0.00 | 0.00 | 43 | 1019.0 |
| 20260831060557 | 77 | 131 | 0.0 | 1.0 | 0.00 | 0.00 | 0.00 | 43 | 1019.4 |
| 20260831060034 | 77 | 143 | 0.0 | 1.0 | 0.00 | 0.00 | 0.00 | 43 | 1019.0 |
| 20260831055535 | 77 | 127 | 0.0 | 1.0 | 0.00 | 0.00 | 0.00 | 42 | 1019.0 |
| 20260831055023 | 77 | 117 | 0.0 | 4.0 | 0.00 | 0.00 | 0.00 | 42 | 1019.4 |
| 20260831054733 | 78 | 167 | 0.0 | 6.0 | 0.00 | 0.00 | 0.00 | 42 | 1019.0 |
| 20260831054003 | 78 | 147 | 0.0 | 7.0 | 0.00 | 0.00 | 0.00 | 41 | 1018.7 |
| 20260831053502 | 78 | 108 | 1.0 | 7.0 | 0.00 | 0.00 | 0.00 | 41 | 1018.7 |
| 20260831052947 | 78 | 164 | 2.0 | 7.0 | 0.00 | 0.00 | 0.00 | 41 | 1018.7 |
| 20260831052428 | 78 | 149 | 0.0 | 7.0 | 0.00 | 0.00 | 0.00 | 40 | 1019.0 |
| 20260831051929 | 78 | 133 | 1.0 | 7.0 | 0.00 | 0.00 | 0.00 | 40 | 1018.7 |
| 20260831051646 | 79 | 126 | 0.0 | 4.0 | 0.00 | 0.00 | 0.00 | 40 | 1018.7 |
| 20260831050914 | 79 | 136 | 0.0 | 4.0 | 0.00 | 0.00 | 0.00 | 40 | 1018.3 |
| 20260831050615 | 79 | 134 | 1.0 | 4.0 | 0.00 | 0.00 | 0.00 | 40 | 1018.7 |
| 20260831045850 | 79 | 141 | 0.0 | 6.0 | 0.00 | 0.00 | 0.00 | 40 | 1018.7 |
| 20260831045343 | 79 | 137 | 0.0 | 7.0 | 0.00 | 0.00 | 0.00 | 39 | 1019.0 |
| 20260831044836 | 79 | 138 | 0.0 | 7.0 | 0.00 | 0.00 | 0.00 | 39 | 1018.7 |
| 20260831044332 | 79 | 156 | 2.0 | 9.0 | 0.00 | 0.00 | 0.00 | 38 | 1018.3 |
| 20260831044054 | 80 | 126 | 1.0 | 11.0 | 0.00 | 0.00 | 0.00 | 38 | 1018.3 |
| 20260831043552 | 80 | 135 | 0.0 | 11.0 | 0.00 | 0.00 | 0.00 | 38 | 1018.7 |
| 20260831042827 | 80 | 117 | 2.0 | 9.0 | 0.00 | 0.00 | 0.00 | 37 | 1018.7 |
| 20260831042801 | 81 | 165 | 3.0 | 9.0 | 0.00 | 0.00 | 0.00 | 37 | 1018.3 |
| 20260831041758 | 81 | 115 | 0.0 | 4.0 | 0.00 | 0.00 | 0.00 | 37 | 1018.3 |
| 20260831041256 | 81 | 157 | 1.0 | 13.0 | 0.00 | 0.00 | 0.00 | 36 | 1018.3 |
| 20260831040754 | 81 | 131 | 2.0 | 13.0 | 0.00 | 0.00 | 0.00 | 36 | 1018.3 |
| 20260831040243 | 81 | 128 | 0.0 | 8.0 | 0.00 | 0.00 | 0.00 | 36 | 1018.7 |
| 20260831035733 | 81 | 158 | 1.0 | 8.0 | 0.00 | 0.00 | 0.00 | 36 | 1018.3 |
| 20260831035217 | 82 | 134 | 0.0 | 6.0 | 0.00 | 0.00 | 0.00 | 35 | 1018.3 |
| 20260831034715 | 82 | 147 | 0.0 | 6.0 | 0.00 | 0.00 | 0.00 | 35 | 1018.7 |
| 20260831034214 | 82 | 126 | 1.0 | 10.0 | 0.00 | 0.00 | 0.00 | 35 | 1018.7 |
| 20260831033651 | 82 | 139 | 4.0 | 10.0 | 0.00 | 0.00 | 0.00 | 35 | 1018.3 |
| 20260831033146 | 82 | 141 | 0.0 | 10.0 | 0.00 | 0.00 | 0.00 | 34 | 1018.3 |
| 20260831032638 | 83 | 115 | 2.0 | 7.0 | 0.00 | 0.00 | 0.00 | 34 | 1018.3 |
| 20260831032135 | 83 | 127 | 0.0 | 7.0 | 0.00 | 0.00 | 0.00 | 34 | 1018.3 |
| 20260831031630 | 83 | 117 | 2.0 | 7.0 | 0.00 | 0.00 | 0.00 | 34 | 1018.3 |
| 20260831031120 | 83 | 122 | 0.0 | 10.0 | 0.00 | 0.00 | 0.00 | 33 | 1018.0 |
| 20260831030619 | 84 | 90 | 1.0 | 10.0 | 0.00 | 0.00 | 0.00 | 33 | 1018.0 |
| 20260831030118 | 84 | 145 | 0.0 | 9.0 | 0.00 | 0.00 | 0.00 | 33 | 1017.7 |
| 20260831025614 | 84 | 120 | 2.0 | 9.0 | 0.00 | 0.00 | 0.00 | 32 | 1018.0 |
| 20260831025105 | 85 | 120 | 5.0 | 9.0 | 0.00 | 0.00 | 0.00 | 32 | 1017.7 |
| 20260831024559 | 85 | 117 | 2.0 | 9.0 | 0.00 | 0.00 | 0.00 | 31 | 1017.7 |
| 20260831024051 | 85 | 114 | 1.0 | 9.0 | 0.00 | 0.00 | 0.00 | 31 | 1018.0 |
| 20260831024023 | 86 | 138 | 2.0 | 9.0 | 0.00 | 0.00 | 0.00 | 31 | 1017.7 |
| 20260831023035 | 86 | 122 | 0.0 | 9.0 | 0.00 | 0.00 | 0.00 | 30 | 1017.3 |
| 20260831022531 | 86 | 148 | 0.0 | 7.0 | 0.00 | 0.00 | 0.00 | 30 | 1017.3 |
| 20260831022015 | 86 | 117 | 2.0 | 7.0 | 0.00 | 0.00 | 0.00 | 30 | 1017.3 |
| 20260831021509 | 86 | 106 | 1.0 | 7.0 | 0.00 | 0.00 | 0.00 | 30 | 1017.3 |
| 20260831021002 | 87 | 116 | 1.0 | 7.0 | 0.00 | 0.00 | 0.00 | 30 | 1017.0 |
| 20260831020503 | 87 | 162 | 1.0 | 8.0 | 0.00 | 0.00 | 0.00 | 30 | 1017.3 |
| 20260831015959 | 87 | 140 | 0.0 | 8.0 | 0.00 | 0.00 | 0.00 | 30 | 1017.0 |
| 20260831015713 | 88 | 126 | 0.0 | 8.0 | 0.00 | 0.00 | 0.00 | 29 | 1017.0 |
| 20260831014947 | 88 | 128 | 3.0 | 8.0 | 0.00 | 0.00 | 0.00 | 29 | 1017.0 |
| 20260831014655 | 88 | 150 | 1.0 | 10.0 | 0.00 | 0.00 | 0.00 | 29 | 1016.7 |
| 20260831013928 | 89 | 132 | 2.0 | 10.0 | 0.00 | 0.00 | 0.00 | 28 | 1017.0 |
| 20260831013427 | 89 | 129 | 4.0 | 9.0 | 0.00 | 0.00 | 0.00 | 28 | 1016.7 |
| 20260831012926 | 89 | 138 | 1.0 | 9.0 | 0.00 | 0.00 | 0.00 | 27 | 1016.7 |
| 20260831012424 | 90 | 125 | 0.0 | 8.0 | 0.00 | 0.00 | 0.00 | 27 | 1017.0 |
| 20260831011923 | 90 | 122 | 3.0 | 7.0 | 0.00 | 0.00 | 0.00 | 27 | 1016.7 |
| 20260831011415 | 90 | 126 | 0.0 | 13.0 | 0.00 | 0.00 | 0.00 | 27 | 1017.0 |
| 20260831011132 | 91 | 148 | 1.0 | 13.0 | 0.00 | 0.00 | 0.00 | 26 | 1016.7 |
| 20260831010358 | 91 | 142 | 0.0 | 11.0 | 0.00 | 0.00 | 0.00 | 26 | 1016.7 |
| 20260831005854 | 91 | 137 | 2.0 | 13.0 | 0.00 | 0.00 | 0.00 | 26 | 1016.7 |
| 20260831005352 | 91 | 109 | 1.0 | 15.0 | 0.00 | 0.00 | 0.00 | 26 | 1017.0 |
| 20260831004847 | 92 | 117 | 4.0 | 15.0 | 0.00 | 0.00 | 0.00 | 26 | 1016.7 |
| 20260831004344 | 92 | 117 | 5.0 | 15.0 | 0.00 | 0.00 | 0.00 | 26 | 1016.7 |
| 20260831003835 | 92 | 175 | 5.0 | 15.0 | 0.00 | 0.00 | 0.00 | 25 | 1016.7 |
| 20260831003324 | 92 | 113 | 9.0 | 15.0 | 0.00 | 0.00 | 0.00 | 25 | 1017.0 |
| 20260831002820 | 93 | 136 | 1.0 | 13.0 | 0.00 | 0.00 | 0.00 | 25 | 1016.7 |
| 20260831002306 | 93 | 139 | 1.0 | 13.0 | 0.00 | 0.00 | 0.00 | 24 | 1016.7 |
| 20260831001759 | 93 | 114 | 9.0 | 13.0 | 0.00 | 0.00 | 0.00 | 24 | 1016.7 |
| 20260831001251 | 94 | 122 | 6.0 | 11.0 | 0.00 | 0.00 | 0.00 | 24 | 1016.7 |
| 20260831000746 | 94 | 138 | 1.0 | 14.0 | 0.00 | 0.00 | 0.00 | 24 | 1016.7 |
| 20260831000236 | 94 | 153 | 7.0 | 14.0 | 0.00 | 0.00 | 0.00 | 24 | 1017.0 |
| 20260830235726 | 94 | 124 | 0.0 | 8.0 | 0.00 | 0.00 | 0.00 | 24 | 1016.7 |
| 20260830235212 | 95 | 135 | 1.0 | 11.0 | 0.00 | 0.00 | 0.00 | 24 | 1017.0 |
| 20260830234701 | 94 | 151 | 2.0 | 10.0 | 0.00 | 0.00 | 0.00 | 23 | 1017.0 |
| 20260830234200 | 95 | 140 | 0.0 | 10.0 | 0.00 | 0.00 | 0.00 | 24 | 1017.0 |
| 20260830233645 | 95 | 163 | 7.0 | 13.0 | 0.00 | 0.00 | 0.00 | 23 | 1016.7 |
| 20260830233404 | 95 | 142 | 6.0 | 15.0 | 0.00 | 0.00 | 0.00 | 24 | 1016.7 |
| 20260830232633 | 94 | 118 | 4.0 | 15.0 | 0.00 | 0.00 | 0.00 | 24 | 1016.7 |
| 20260830232130 | 94 | 169 | 4.0 | 8.0 | 0.00 | 0.00 | 0.00 | 24 | 1016.7 |
| 20260830231849 | 95 | 128 | 0.0 | 4.0 | 0.00 | 0.00 | 0.00 | 23 | 1016.7 |
| 20260830231120 | 95 | 158 | 0.0 | 4.0 | 0.00 | 0.00 | 0.00 | 24 | 1017.0 |
| 20260830230620 | 95 | 113 | 2.0 | 8.0 | 0.00 | 0.00 | 0.00 | 24 | 1016.7 |
| 20260830230114 | 96 | 158 | 0.0 | 8.0 | 0.00 | 0.00 | 0.00 | 23 | 1016.7 |
| 20260830225604 | 97 | 141 | 0.0 | 13.0 | 0.00 | 0.00 | 0.00 | 23 | 1016.7 |
| 20260830225056 | 96 | 198 | 0.0 | 13.0 | 0.00 | 0.00 | 0.00 | 22 | 1016.7 |
| 20260830224550 | 96 | 112 | 1.0 | 14.0 | 0.00 | 0.00 | 0.00 | 23 | 1016.7 |
| 20260830224037 | 96 | 124 | 2.0 | 14.0 | 0.00 | 0.00 | 0.00 | 23 | 1016.7 |
| 20260830223538 | 96 | 138 | 1.0 | 7.0 | 0.00 | 0.00 | 0.00 | 23 | 1016.7 |
| 20260830223027 | 96 | 115 | 0.0 | 7.0 | 0.00 | 0.00 | 0.00 | 23 | 1017.0 |
| 20260830222743 | 98 | 160 | 0.0 | 8.0 | 0.00 | 0.00 | 0.00 | 22 | 1016.7 |
| 20260830222504 | 98 | 110 | 0.0 | 8.0 | 0.00 | 0.00 | 0.00 | 22 | 1016.7 |
| 20260830221721 | 98 | 147 | 1.0 | 10.0 | 0.00 | 0.00 | 0.00 | 22 | 1017.0 |
| 20260830220952 | 98 | 156 | 5.0 | 10.0 | 0.00 | 0.00 | 0.00 | 22 | 1017.0 |
| 20260830220440 | 98 | 125 | 0.0 | 4.0 | 0.00 | 0.00 | 0.00 | 22 | 1017.0 |
| 20260830215940 | 98 | 163 | 0.0 | 4.0 | 0.00 | 0.00 | 0.00 | 22 | 1017.0 |
| 20260830215430 | 97 | 141 | 1.0 | 6.0 | 0.00 | 0.00 | 0.00 | 23 | 1017.0 |